Pensacola NAS, FL

10:31 PM CDT on May 26, 2017 (GMT -0500)
Pensacola Naval Air Station

Weather History for KNPA - February, 2012

Change the Weather History Date:

Sunday, February 12, 2012

  Actual Average Record
Temperature  
Mean Temperature 38 °F -  
Max Temperature 48 °F 63 °F 77 °F (2017)
Min Temperature 27 °F 45 °F 26 °F (2011)
Degree Days  
Heating Degree Days 28    
Moisture  
Dew Point 14 °F    
Average Humidity 41    
Maximum Humidity 56    
Minimum Humidity 22    
Precipitation  
Precipitation 0.00 in - - ()
Sea Level Pressure  
Sea Level Pressure 30.43 in    
Wind  
Wind Speed 9 mph (North)    
Max Wind Speed 14 mph    
Max Gust Speed 21 mph    
Visibility 10 miles    
Events      
Averages and records for this station are not official NWS values.
T = Trace of Precipitation, MM = Missing Value Source: NWS Daily Summary

Daily Weather History Graph

Daily Weather History Graph

Search for Another Location

Airport or City:

Trip Planner

Search our weather history database for the weather conditions in past years. The results will help you decide how hot, cold, wet, or windy it might be!

Date:

Astronomy

Feb. 12, 2012 Rise Set
Actual Time 6:32 AM CST 5:34 PM CST
Civil Twilight 6:07 AM CST 5:59 PM CST
Nautical Twilight 5:39 AM CST 6:27 PM CST
Astronomical Twilight 5:11 AM CST 6:55 PM CST
Moon 11:00 PM CST (2/12) 9:19 AM CST (2/12)
Length of Visible Light 11h 51m
Length of Day
11h 02m
Waning Gibbous, 72% of the Moon is Illuminated
Feb 12
Waning Gibbous
Feb 14
Last Quarter
Feb 21
New
Feb 29
First Quarter
Mar 8
Full

Hourly Weather History & Observations

Time (CST) Temp. Windchill Dew Point Humidity Pressure Visibility Wind Dir Wind Speed Gust Speed Precip Events Conditions
12:56 AM 30.9 °F 22.8 °F 12.9 °F 47% 30.43 in 10.0 mi North 9.2 mph - N/A   Clear
1:56 AM 28.9 °F 21.1 °F 14.0 °F 54% 30.43 in 10.0 mi North 8.1 mph - N/A   Clear
3:56 AM 28.9 °F 21.1 °F 12.9 °F 51% 30.44 in 10.0 mi North 8.1 mph - N/A   Clear
4:56 AM 28.0 °F 19.3 °F 12.0 °F 51% 30.46 in 10.0 mi NNW 9.2 mph - N/A   Clear
5:56 AM 27.0 °F 17.3 °F 12.0 °F 53% 30.50 in 10.0 mi North 10.4 mph 17.3 mph N/A   Clear
6:56 AM 27.0 °F 18.0 °F 12.9 °F 56% 30.51 in 10.0 mi North 9.2 mph - N/A   Clear
7:56 AM 28.9 °F 20.4 °F 12.9 °F 51% 30.53 in 10.0 mi North 9.2 mph - N/A   Clear
8:56 AM 30.9 °F 21.7 °F 10.9 °F 43% 30.52 in 10.0 mi North 11.5 mph - N/A   Clear
9:56 AM 36.0 °F 28.5 °F 12.0 °F 37% 30.52 in 10.0 mi North 10.4 mph 17.3 mph N/A   Clear
10:56 AM 39.9 °F 32.9 °F 12.0 °F 32% 30.51 in 10.0 mi NNE 11.5 mph - N/A   Clear
11:56 AM 43.0 °F 37.7 °F 12.0 °F 28% 30.48 in 10.0 mi North 9.2 mph - N/A   Mostly Cloudy
12:56 PM 45.0 °F 41.8 °F 10.9 °F 25% 30.43 in 10.0 mi Variable 5.8 mph - N/A   Scattered Clouds
1:56 PM 48.0 °F - 12.0 °F 24% 30.40 in 10.0 mi NNE 13.8 mph 18.4 mph N/A   Scattered Clouds
2:56 PM 48.9 °F - 10.9 °F 22% 30.38 in 10.0 mi NNE 12.7 mph 18.4 mph N/A   Scattered Clouds
3:56 PM 48.0 °F - 10.0 °F 22% 30.35 in 10.0 mi North 11.5 mph 20.7 mph N/A   Mostly Cloudy
4:56 PM 45.0 °F 40.1 °F 12.0 °F 26% 30.36 in 10.0 mi North 9.2 mph - N/A   Mostly Cloudy
5:56 PM 43.0 °F 39.5 °F 14.0 °F 31% 30.36 in 10.0 mi North 5.8 mph - N/A   Scattered Clouds
6:56 PM 35.1 °F 32.2 °F 19.0 °F 52% 30.37 in 10.0 mi NNW 3.5 mph - N/A   Scattered Clouds
7:56 PM 37.0 °F 34.5 °F 17.1 °F 44% 30.38 in 10.0 mi North 3.5 mph - N/A   Mostly Cloudy
8:30 PM 37.4 °F 33.8 °F 15.8 °F 41% 30.36 in 10.0 mi North 4.6 mph - N/A   Mostly Cloudy
8:56 PM 37.0 °F 33.3 °F 17.1 °F 44% 30.37 in 10.0 mi NNW 4.6 mph - N/A   Clear
9:56 PM 36.0 °F 32.1 °F 17.1 °F 46% 30.37 in 10.0 mi North 4.6 mph - N/A   Clear
11:56 PM 35.1 °F 32.2 °F 19.0 °F 52% 30.36 in 10.0 mi North 3.5 mph - N/A   Clear